FW9607 Weather Reports


Display with metric or nautical units.
time (UTC)temp
F
wind
direction
speed
MPH
gust
MPH
rain 1hr
in
rain 24hr
in
rain mn
in
humidity
%
barometer
mb
20260505204346 89 90 5.0 13.0 0.00 0.00 0.00 70 1004.1
20260505203848 89 139 4.0 10.0 0.00 0.00 0.00 72 1004.2
20260505202848 90 91 4.0 10.0 0.00 0.00 0.00 69 1004.3
20260505202346 90 125 4.0 10.0 0.00 0.00 0.00 69 1004.4
20260505201848 91 150 3.0 10.0 0.00 0.00 0.00 68 1004.6
20260505201346 92 91 3.0 10.0 0.00 0.00 0.00 65 1004.6
20260505200848 93 125 3.0 12.0 0.00 0.00 0.00 59 1004.7
20260505200346 93 193 3.0 12.0 0.00 0.00 0.00 59 1004.7
20260505194848 92 150 3.0 9.0 0.00 0.00 0.00 60 1004.8
20260505194345 91 127 4.0 14.0 0.00 0.00 0.00 61 1004.8
20260505193842 91 125 4.0 14.0 0.00 0.00 0.00 62 1004.9
20260505193342 91 138 5.0 14.0 0.00 0.00 0.00 61 1005.1
20260505192838 90 184 4.0 14.0 0.00 0.00 0.00 62 1005.1
20260505192337 90 59 4.0 11.0 0.00 0.00 0.00 63 1005.1
20260505191838 90 184 4.0 11.0 0.00 0.00 0.00 62 1005.1
20260505191338 90 137 4.0 13.0 0.00 0.00 0.00 63 1005.1
20260505190838 90 175 4.0 13.0 0.00 0.00 0.00 62 1005.2
20260505185338 89 178 4.0 12.0 0.00 0.00 0.00 64 1005.3
20260505184841 89 166 5.0 13.0 0.00 0.00 0.00 64 1005.4
20260505184341 89 156 5.0 13.0 0.00 0.00 0.00 64 1005.5
20260505183840 88 188 6.0 13.0 0.00 0.00 0.00 66 1005.6
20260505183340 88 182 6.0 13.0 0.00 0.00 0.00 66 1005.7
20260505182851 88 173 6.0 11.0 0.00 0.00 0.00 66 1005.7
20260505182337 88 136 6.0 12.0 0.00 0.00 0.00 67 1005.7
20260505181836 88 164 6.0 12.0 0.00 0.00 0.00 66 1005.7
20260505181333 88 206 5.0 11.0 0.00 0.00 0.00 67 1005.8
20260505180832 88 166 4.0 11.0 0.00 0.00 0.00 67 1005.8
20260505180333 88 169 5.0 12.0 0.00 0.00 0.00 67 1005.9
20260505175846 87 181 5.0 13.0 0.00 0.00 0.00 67 1006.0
20260505175333 87 176 5.0 13.0 0.00 0.00 0.00 69 1006.0
20260505174833 88 162 5.0 10.0 0.00 0.00 0.00 68 1006.1
20260505174333 88 173 4.0 8.0 0.00 0.00 0.00 68 1006.2
20260505173834 87 187 6.0 15.0 0.00 0.00 0.00 69 1006.2
20260505172840 87 185 4.0 13.0 0.00 0.00 0.00 68 1006.4
20260505171833 87 175 4.0 13.0 0.00 0.00 0.00 69 1006.6
20260505170833 86 179 4.0 13.0 0.00 0.00 0.00 70 1006.6
20260505170331 85 163 6.0 13.0 0.00 0.00 0.00 71 1006.7
20260505165834 85 188 8.0 15.0 0.00 0.00 0.00 73 1006.8
20260505165331 85 165 8.0 17.0 0.00 0.00 0.00 72 1006.8
20260505164831 85 183 7.0 17.0 0.00 0.00 0.00 73 1006.9
20260505164331 85 200 6.0 14.0 0.00 0.00 0.00 73 1006.9
20260505163831 85 193 6.0 14.0 0.00 0.00 0.00 73 1006.8
20260505163332 84 211 6.0 14.0 0.00 0.00 0.00 74 1006.8
20260505162831 84 209 7.0 13.0 0.00 0.00 0.00 75 1006.8
20260505162331 83 179 7.0 14.0 0.00 0.00 0.00 75 1006.9
20260505161831 83 159 6.0 14.0 0.00 0.00 0.00 76 1006.9
20260505161331 83 180 5.0 13.0 0.00 0.00 0.00 76 1006.9
20260505160831 83 180 5.0 13.0 0.00 0.00 0.00 76 1006.8
20260505160332 83 178 6.0 13.0 0.00 0.00 0.00 77 1006.9
20260505153326 81 173 7.0 16.0 0.00 0.00 0.00 80 1006.8
20260505152826 81 190 7.0 16.0 0.00 0.00 0.00 79 1006.7
20260505152327 81 130 7.0 14.0 0.00 0.00 0.00 80 1006.7
20260505151826 81 194 6.0 14.0 0.00 0.00 0.00 80 1006.7
20260505151326 81 210 6.0 16.0 0.00 0.00 0.00 82 1006.8
20260505150826 80 179 7.0 16.0 0.00 0.00 0.00 82 1006.7
20260505150326 80 130 6.0 14.0 0.00 0.00 0.00 82 1006.7
20260505140325 78 191 4.0 13.0 0.00 0.00 0.00 88 1006.9
20260505124818 75 179 4.0 7.0 0.00 0.00 0.00 92 1006.9
20260505123819 75 183 3.0 8.0 0.00 0.00 0.00 93 1006.9
20260505122816 75 173 3.0 5.0 0.00 0.00 0.00 93 1006.8
20260505122316 74 195 3.0 5.0 0.00 0.00 0.00 93 1006.7
20260505121807 74 186 3.0 6.0 0.00 0.00 0.00 93 1006.6
20260505121307 74 208 4.0 7.0 0.00 0.00 0.00 93 1006.6
20260505120807 74 169 4.0 9.0 0.00 0.00 0.00 93 1006.5
20260505120308 74 193 4.0 9.0 0.00 0.00 0.00 93 1006.4
20260505115808 74 190 4.0 9.0 0.00 0.00 0.00 93 1006.4
20260505114307 74 185 4.0 6.0 0.00 0.00 0.00 93 1006.5
20260505113807 74 170 3.0 6.0 0.00 0.00 0.00 93 1006.5
20260505113301 74 162 3.0 4.0 0.00 0.00 0.00 93 1006.5
20260505112802 74 185 3.0 5.0 0.00 0.00 0.00 93 1006.5
20260505112304 74 136 3.0 5.0 0.00 0.00 0.00 93 1006.5
20260505111802 74 164 3.0 6.0 0.00 0.00 0.00 93 1006.5
20260505111302 74 160 4.0 7.0 0.00 0.00 0.00 93 1006.5
20260505110802 74 176 4.0 7.0 0.00 0.00 0.00 93 1006.5
20260505110302 74 164 3.0 6.0 0.00 0.00 0.00 93 1006.5
20260505101300 74 130 4.0 6.0 0.00 0.00 0.00 93 1006.6
20260505100800 74 182 3.0 6.0 0.00 0.00 0.00 93 1006.6
20260505095757 74 161 4.0 8.0 0.00 0.00 0.00 93 1006.6
20260505095259 73 189 5.0 8.0 0.00 0.00 0.00 93 1006.6
20260505094759 73 152 4.0 9.0 0.00 0.00 0.00 93 1006.6
20260505094300 73 176 5.0 9.0 0.00 0.00 0.00 93 1006.6
20260505093300 73 189 4.0 8.0 0.00 0.00 0.00 93 1006.7
20260505092758 73 172 5.0 9.0 0.00 0.00 0.00 94 1006.7
20260505091755 73 178 6.0 10.0 0.00 0.00 0.00 94 1006.8
20260505091258 73 182 6.0 10.0 0.00 0.00 0.00 94 1006.8
20260505090755 72 173 5.0 9.0 0.00 0.00 0.00 94 1006.8
20260505090259 72 172 5.0 9.0 0.00 0.00 0.00 94 1006.9
20260505085755 72 161 5.0 9.0 0.00 0.00 0.00 95 1006.9
20260505085259 72 142 5.0 7.0 0.00 0.00 0.00 95 1006.8
20260505084756 72 155 4.0 9.0 0.00 0.00 0.00 95 1006.9
20260505084311 72 139 5.0 9.0 0.00 0.00 0.00 95 1006.9
20260505083258 71 157 5.0 7.0 0.00 0.00 0.00 95 1007.1
20260505082255 71 171 4.0 7.0 0.00 0.00 0.00 95 1007.1
20260505081752 71 167 4.0 8.0 0.00 0.00 0.00 95 1007.3
20260505081252 71 155 4.0 8.0 0.00 0.00 0.00 96 1007.4
20260505080253 71 155 4.0 6.0 0.00 0.00 0.00 95 1007.5
20260505075753 71 164 4.0 6.0 0.00 0.00 0.00 96 1007.6
20260505075253 71 167 3.0 6.0 0.00 0.00 0.00 95 1007.6
20260505074753 71 146 2.0 5.0 0.00 0.00 0.00 95 1007.5
20260505073253 71 163 2.0 5.0 0.00 0.00 0.00 95 1007.6
20260505072753 71 125 3.0 5.0 0.00 0.00 0.00 95 1007.6
20260505072253 71 142 3.0 5.0 0.00 0.00 0.00 95 1007.7
20260505071753 71 174 2.0 5.0 0.00 0.00 0.00 95 1008.0
20260505071254 71 103 2.0 5.0 0.00 0.00 0.00 95 1008.1
20260505070751 71 144 3.0 6.0 0.00 0.00 0.00 95 1008.0
20260505070250 71 157 3.0 6.0 0.00 0.00 0.00 95 1008.1
20260505065750 71 156 2.0 5.0 0.00 0.00 0.00 94 1008.0
20260505065250 71 158 2.0 5.0 0.00 0.00 0.00 94 1008.2
20260505064751 71 105 3.0 6.0 0.00 0.00 0.00 94 1008.4
20260505064251 71 164 3.0 6.0 0.00 0.00 0.00 94 1008.4
20260505063751 71 159 2.0 5.0 0.00 0.00 0.00 94 1008.5
20260505062251 71 147 3.0 6.0 0.00 0.00 0.00 94 1008.6
20260505061751 72 171 3.0 6.0 0.00 0.00 0.00 94 1008.6
20260505061251 72 138 3.0 5.0 0.00 0.00 0.00 94 1008.7
20260505060751 72 163 3.0 6.0 0.00 0.00 0.00 93 1008.7
20260505055751 72 178 3.0 6.0 0.00 0.00 0.00 93 1009.0
20260505055248 72 165 3.0 6.0 0.00 0.00 0.00 93 1009.0
20260505054749 72 154 3.0 6.0 0.00 0.00 0.00 93 1009.0
20260505053749 72 163 3.0 6.0 0.00 0.00 0.00 93 1009.2
20260505053248 72 179 3.0 6.0 0.00 0.00 0.00 93 1009.2
20260505052749 72 178 3.0 5.0 0.00 0.00 0.00 93 1009.2
20260505052249 72 133 3.0 5.0 0.00 0.00 0.00 93 1009.3
20260505051749 72 189 3.0 7.0 0.00 0.00 0.00 93 1009.3
20260505050749 72 190 2.0 7.0 0.00 0.00 0.00 93 1009.3
20260505050249 72 166 2.0 5.0 0.00 0.00 0.00 92 1009.4
20260505041747 72 157 1.0 3.0 0.00 0.00 0.00 90 1009.5
20260505041247 73 160 1.0 3.0 0.00 0.00 0.00 90 1009.4
20260505040747 73 141 1.0 3.0 0.00 0.00 0.00 90 1009.4
20260505040247 73 153 1.0 3.0 0.00 0.00 0.00 90 1009.4
20260505035747 73 186 1.0 2.0 0.00 0.00 0.00 90 1009.4
20260505035247 73 195 1.0 4.0 0.00 0.00 0.00 90 1009.4
20260505034747 73 146 1.0 4.0 0.00 0.00 0.00 89 1009.4
20260505034246 73 124 1.0 4.0 0.00 0.00 0.00 89 1009.3
20260505033748 73 174 2.0 4.0 0.00 0.00 0.00 89 1009.3
20260505033247 73 162 2.0 4.0 0.00 0.00 0.00 88 1009.3
20260505032745 73 48 2.0 5.0 0.00 0.00 0.00 88 1009.4
20260505032244 73 147 2.0 5.0 0.00 0.00 0.00 88 1009.4
20260505031745 74 176 2.0 4.0 0.00 0.00 0.00 88 1009.4
20260505030745 74 126 1.0 3.0 0.00 0.00 0.00 87 1009.2
20260505030245 74 155 1.0 4.0 0.00 0.00 0.00 87 1009.3
20260505025745 74 192 1.0 4.0 0.00 0.00 0.00 87 1009.3
20260505025245 74 150 1.0 4.0 0.00 0.00 0.00 86 1009.1
20260505024745 74 154 1.0 4.0 0.00 0.00 0.00 86 1009.2
20260505023745 74 137 1.0 4.0 0.00 0.00 0.00 85 1009.1
20260505022743 75 129 1.0 5.0 0.00 0.00 0.00 84 1009.0
20260505022240 75 87 2.0 4.0 0.00 0.00 0.00 84 1008.9
20260505021740 75 165 2.0 6.0 0.00 0.00 0.00 83 1008.9
20260505021239 75 0 2.0 6.0 0.00 0.00 0.00 83 1008.8
20260505020739 75 127 2.0 4.0 0.00 0.00 0.00 82 1008.8
20260505020240 75 99 2.0 6.0 0.00 0.00 0.00 82 1008.9
20260505015740 76 52 2.0 6.0 0.00 0.00 0.00 81 1008.7
20260505015236 76 125 2.0 7.0 0.00 0.00 0.00 81 1008.6
20260505014737 76 162 2.0 7.0 0.00 0.00 0.00 80 1008.5
20260505013737 76 111 2.0 6.0 0.00 0.00 0.00 80 1008.5
20260505013238 76 104 2.0 6.0 0.00 0.00 0.00 80 1008.3
20260505011737 77 131 2.0 7.0 0.00 0.00 0.00 79 1008.3
20260505011234 77 99 2.0 7.0 0.00 0.00 0.00 79 1008.3
20260505010735 77 127 3.0 5.0 0.00 0.00 0.00 79 1008.2
20260505010231 77 95 3.0 5.0 0.00 0.00 0.00 79 1008.1
20260505005735 77 119 3.0 6.0 0.00 0.00 0.00 79 1008.1
20260505005235 77 108 3.0 8.0 0.00 0.00 0.00 79 1008.2
20260505003735 78 107 3.0 7.0 0.00 0.00 0.00 78 1008.3
20260505003235 78 122 3.0 7.0 0.00 0.00 0.00 78 1008.4
20260505002735 78 84 3.0 8.0 0.00 0.00 0.00 78 1008.4
20260505001735 78 126 4.0 11.0 0.00 0.00 0.00 77 1008.5
20260505001235 79 124 5.0 11.0 0.00 0.00 0.00 77 1008.6
20260505000735 79 94 4.0 10.0 0.00 0.00 0.00 76 1008.6
20260504235736 79 184 4.0 9.0 0.00 0.00 0.00 76 1008.6
20260504235233 79 124 4.0 11.0 0.00 0.00 0.00 76 1008.6
20260504234730 79 114 4.0 11.0 0.00 0.00 0.00 76 1008.3
20260504234230 79 122 4.0 9.0 0.00 0.00 0.00 76 1008.5
20260504233729 79 102 4.0 12.0 0.00 0.00 0.00 76 1008.6
20260504232731 79 194 4.0 12.0 0.00 0.00 0.00 75 1008.5
20260504232230 79 129 4.0 10.0 0.00 0.00 0.00 75 1008.6
20260504231730 79 135 5.0 11.0 0.00 0.00 0.00 76 1008.6
20260504231230 80 126 5.0 11.0 0.00 0.00 0.00 75 1008.7
20260504225730 80 95 5.0 12.0 0.00 0.00 0.00 75 1008.8
20260504225230 80 96 5.0 12.0 0.00 0.00 0.00 75 1008.9
20260504223730 80 109 4.0 11.0 0.00 0.00 0.00 74 1008.9
20260504223228 81 112 4.0 13.0 0.00 0.00 0.00 74 1008.9
20260504222728 81 128 5.0 13.0 0.00 0.00 0.00 74 1009.1
20260504222228 81 177 5.0 11.0 0.00 0.00 0.00 73 1009.1
20260504221728 80 139 5.0 11.0 0.00 0.00 0.00 74 1009.1
20260504221228 80 139 4.0 11.0 0.00 0.00 0.00 74 1009.2
20260504220728 80 118 4.0 9.0 0.00 0.00 0.00 74 1009.4
20260504220229 81 155 5.0 14.0 0.00 0.00 0.00 74 1009.4
20260504215728 81 92 5.0 14.0 0.00 0.00 0.00 74 1009.3
20260504214729 81 134 4.0 11.0 0.00 0.00 0.00 74 1009.5
20260504214229 81 182 4.0 11.0 0.00 0.00 0.00 74 1009.5
20260504213729 81 88 3.0 11.0 0.00 0.00 0.00 74 1009.5
20260504213228 81 125 3.0 8.0 0.00 0.00 0.00 73 1009.5
20260504212725 81 139 4.0 9.0 0.00 0.00 0.00 74 1009.7
20260504212225 81 120 4.0 9.0 0.00 0.00 0.00 74 1009.7
20260504211726 81 151 4.0 9.0 0.00 0.00 0.00 73 1009.6
20260504210226 81 95 4.0 8.0 0.00 0.00 0.00 73 1009.9
20260504205726 82 114 3.0 8.0 0.00 0.00 0.00 72 1009.9
20260504205227 81 96 3.0 6.0 0.00 0.00 0.00 72 1010.0
20260504204726 81 118 3.0 6.0 0.00 0.00 0.00 73 1010.1